User: anonymous   Login
Location: The Jewett Observatory
(46.7288°N, 117.1525°W)
Time: 20:48:00
(UTC-07:00)
Language:

Cosmos 1844 Rocket - Orbit

View from above orbital plane
View from above orbital plane
View from above satellite
View from above satellite

Ground track
Ground track

The orbit data is extracted from the following two-line orbital elements,

1 17974U 87041B   16183.54657800  .00000057  00000-0  51899-4 0  9990
2 17974  71.0092 288.5911 0015174 216.4045 224.8377 14.17206879507003
Epoch (UTC): 01 July 2016 13:07:04
Eccentricity: 0.0015174
inclination: 71.0092°
perigee height: 824 km
apogee height: 846 km
right ascension of ascending node: 288.5911°
argument of perigee: 216.4045°
revolutions per day: 14.17206879
mean anomaly at epoch: 224.8377°
orbit number at epoch: 50700

The dashed part of the orbit path shows where the satellite is in the earth's shadow,  

DLR